Weather in Zarechny

Russia / Udmurt Republic     56°01′47″N   51°53′35″E
temp.,
°C
wind,
m/s
gust,
m/s
humid.,
%
clouds,
%
prec.,
mm/h
press.,
hPa
HPBL,
m
2 march, tue
tue201:00−18sw5109764 0.0 1015198
04:00−14ssw6129682 0.1 1011319
07:00−11sw81494100 0.8 1005513
10:00−8sw91594100 1.6 1002629
13:00−3sw81396100 1.6 999753
16:000sw81396100 3.2 997708
19:000w51096100 0.6 996511
22:00−3wsw5129590 0.9 997308
3 march, wed
wed301:00−3w6119587 0.2 997441
04:00−2w599589 0.3 999443
07:00−7wsw349793 0.1 99866
10:00−5wsw469696 0.2 999231
13:00−3wsw579499 0.3 999464
16:00−4wnw699099 0.4 1000649
19:00−6wnw6129392 0.1 1000524
22:00−9wnw5119386 0.1 1002273
4 march, thu
thu401:00−10w489673 0.1 1002192
04:00−11wsw499681 0.1 1002235
07:00−10wsw5109599 0.3 1001291
10:00−6wsw6109499 0.7 1000516
13:00−4wsw71091100 0.1 999713
16:00−3sw71295100 1.1 998834
19:00−3ssw71496100 1.3 995803
22:000wsw81389100 2.2 993912
5 march, fri
fri501:00−1wsw81494100 0.1 991937
04:00−2wsw61387100 0.4 992671
07:00−6w41093100 0.0 994276
10:00−6wnw479498 0.2 998389
13:00−6nw5891100 0.1 1001523
16:00−8wnw588882 0.1 1004506
19:00−13wnw49930 0.0 1007152
22:00−16wnw46950 0.0 101094
6 march, sat
sat601:00−18w33970 0.0 101324
04:00−18w229639 0.0 101420
07:00−18sw1297100 0.0 101420
10:00−13ese1193100 0.0 1013123
13:00−11e2390100 0.0 1011316
16:00−10ene3491100 0.0 1008382
19:00−13ne2394100 0.0 100732
22:00−16nnw229496 0.0 100820